This is the latest recevied weather packets stored in our database for station/object K4TH. If no packets are shown the sender has not sent any weather packets the latest 1 day(s).
| Time | Temp. | Humidity | Pressure | Rain* | Wind** | Luminosity | Snow |
|---|---|---|---|---|---|---|---|
| 1778014558 | 25° C | 55% | 1012 hPa | 0 mm | 1.34 m/s, 178° | 60 W/m² | - |
| 1778014255 | 25.56° C | 57% | 1012.2 hPa | 0 mm | 2.24 m/s, 177° | 271 W/m² | - |
| 1778013952 | 25.56° C | 57% | 1012.1 hPa | 0 mm | 0.45 m/s, 336° | 111 W/m² | - |
| 1778013649 | 25° C | 56% | 1012 hPa | 0 mm | 0.89 m/s, 347° | 65 W/m² | - |
| 1778013346 | 25.56° C | 57% | 1012.4 hPa | 0 mm | 1.79 m/s, 198° | 46 W/m² | - |
| 1778013043 | 25.56° C | 56% | 1012.4 hPa | 0 mm | 1.34 m/s, 175° | 43 W/m² | - |
| 1778012739 | 25° C | 55% | 1012.6 hPa | 0 mm | 0.89 m/s, 336° | 31 W/m² | - |
| 1778012435 | 25° C | 54% | 1012.7 hPa | 0 mm | 0.45 m/s, 337° | 37 W/m² | - |
| 1778012132 | 25° C | 56% | 1012.7 hPa | 0 mm | 1.34 m/s, 213° | 119 W/m² | - |
| 1778011830 | 25° C | 55% | 1012.7 hPa | 0 mm | 2.68 m/s, 175° | 65 W/m² | - |
| 1778011528 | 25.56° C | 56% | 1012.7 hPa | 0 mm | 0.89 m/s, 88° | 27 W/m² | - |
| 1778011224 | 25° C | 55% | 1012.8 hPa | 0 mm | 0.45 m/s, 333° | 31 W/m² | - |
| 1778010920 | 25° C | 56% | 1012.7 hPa | 0 mm | 0.45 m/s, 67° | 56 W/m² | - |
| 1778010618 | 24.44° C | 55% | 1012.7 hPa | 0 mm | 0.45 m/s, 220° | 58 W/m² | - |
| 1778010315 | 25° C | 54% | 1012.9 hPa | 0 mm | 3.13 m/s, 186° | 58 W/m² | - |
| 1778010010 | 25° C | 55% | 1012.9 hPa | 0 mm | 1.34 m/s, 138° | 134 W/m² | - |
| 1778009708 | 24.44° C | 57% | 1013.1 hPa | 0 mm | 0.89 m/s, 5° | 83 W/m² | - |
| 1778009405 | 24.44° C | 58% | 1012.9 hPa | 0 mm | 0.45 m/s, 50° | 71 W/m² | - |
| 1778009103 | 24.44° C | 57% | 1013.3 hPa | 0 mm | 1.79 m/s, 189° | 60 W/m² | - |
| 1778008800 | 25° C | 56% | 1013.1 hPa | 0 mm | 0.89 m/s, 110° | 51 W/m² | - |
| 1778008499 | 25° C | 56% | 1013.2 hPa | 0 mm | 0.45 m/s, 348° | 38 W/m² | - |
| 1778008196 | 25° C | 55% | 1013.5 hPa | 0 mm | 0.45 m/s, 341° | 41 W/m² | - |
| 1778007890 | 25° C | 55% | 1013.4 hPa | 0 mm | 0.45 m/s, 308° | 41 W/m² | - |
| 1778007586 | 24.44° C | 55% | 1013.7 hPa | 0 mm | 0.45 m/s, 213° | 51 W/m² | - |
| 1778007284 | 24.44° C | 58% | 1013.5 hPa | 0 mm | 0.89 m/s, 172° | 32 W/m² | - |
* Rain latest hour (hover to see other rain measurements)
** Current wind speed in m/s (hover to see current wind gust speed)